Date String (YYYY-MM-DD hh:mm:ss) UTC,Instrument flags,Ambient pressure (hPa),Sample flow (lpm),Bypass flow (lpm),Sample temperature (°C),Ambient temperature (°C),ASC tube jacket temperature (°C),LED temperature (°C),Box temperature (°C),Sample RH (%),Span deviation,Mass concentration (μg/m³),Mass concentration (μg/m³),Mass concentration (μg/m³)
DateTimeUTC,F1_M11,P_M11,Q1_M11,Q2_M11,T1_M11,T2_M11,T3_M11,T4_M11,T5_M11,U1_M11,ZSPAN_M11,X2_M11,X0_M11,X1_M11
2021-11-03 03:00:00,,0831.2,5.01,0.00,24.0,23.3,00.0,33.1,25.8,26.3,-002.0,0011.17,0014.98,0010.57
2021-11-03 03:01:00,,0831.2,4.99,0.00,24.0,23.3,00.0,33.1,25.9,26.7,-002.1,0010.77,0014.60,0010.19
2021-11-03 03:02:00,,0831.2,5.00,0.00,24.0,23.4,00.0,33.1,25.9,27.1,-002.1,0010.37,0014.27,0009.77
2021-11-03 03:03:00,,0831.2,5.01,0.00,24.1,23.4,00.0,33.1,25.9,26.6,-002.1,0010.03,0013.68,0009.45
2021-11-03 03:04:00,,0831.2,4.99,0.00,24.1,23.4,00.0,33.1,25.9,26.5,-002.1,0009.62,0013.01,0009.08
2021-11-03 03:05:00,,0831.2,5.02,0.00,24.1,23.4,00.0,33.1,26.0,26.5,-001.7,0009.11,0012.11,0008.59
2021-11-03 03:06:00,,0831.1,4.99,0.00,24.1,23.5,00.0,33.1,26.0,26.5,-001.5,0008.68,0011.63,0008.17
2021-11-03 03:07:00,,0831.2,5.01,0.00,24.1,23.5,00.0,33.1,26.0,26.4,-001.5,0008.14,0011.05,0007.68
2021-11-03 03:08:00,,0831.2,5.00,0.00,24.2,23.5,00.0,33.1,26.0,26.5,-001.3,0007.65,0010.55,0007.20
2021-11-03 03:09:00,,0831.2,4.99,0.00,24.2,23.5,00.0,33.1,26.1,26.4,-001.1,0007.22,0010.07,0006.80
2021-11-03 03:10:00,,0831.2,5.01,0.00,24.2,23.6,00.0,33.2,26.1,26.4,-001.2,0006.83,0009.62,0006.43
2021-11-03 03:11:00,,0831.2,5.00,0.00,24.2,23.6,00.0,33.2,26.1,26.4,-001.2,0006.41,0009.18,0006.02
2021-11-03 03:12:00,,0831.2,4.99,0.00,24.2,23.6,00.0,33.2,26.1,26.4,-001.3,0006.13,0008.89,0005.74
2021-11-03 03:13:00,,0831.2,5.00,0.00,24.2,23.6,00.0,33.2,26.1,26.4,-001.3,0005.79,0008.46,0005.45
2021-11-03 03:14:00,,0831.2,5.00,0.00,24.3,23.6,00.0,33.2,26.1,26.4,-000.7,0005.38,0008.01,0005.06
2021-11-03 03:15:00,,0831.2,4.99,0.00,24.3,23.6,00.0,33.2,26.2,26.3,0000.0,0005.00,0007.64,0004.69
2021-11-03 03:16:00,,0831.2,5.01,0.00,24.3,23.6,00.0,33.2,26.1,26.3,0000.0,0004.75,0007.41,0004.44
2021-11-03 03:17:00,,0831.1,4.99,0.00,24.3,23.6,00.0,33.2,26.2,26.2,0000.0,0004.49,0006.98,0004.18
2021-11-03 03:18:00,,0831.1,5.00,0.00,24.3,23.6,00.0,33.3,26.2,26.2,0000.0,0004.28,0006.51,0004.00
2021-11-03 03:19:00,,0831.1,5.00,0.00,24.3,23.7,00.0,33.3,26.2,26.1,0000.0,0004.13,0006.18,0003.87
2021-11-03 03:20:00,,0831.1,5.00,0.00,24.3,23.6,00.0,33.3,26.2,26.0,0000.0,0004.00,0005.91,0003.76
2021-11-03 03:21:00,,0831.1,5.01,0.00,24.3,23.6,00.0,33.3,26.2,26.0,0000.0,0003.91,0005.70,0003.68
2021-11-03 03:22:00,,0831.1,4.99,0.00,24.3,23.6,00.0,33.3,26.2,26.0,0000.0,0003.84,0005.58,0003.61
2021-11-03 03:23:00,,0831.0,5.00,0.00,24.3,23.6,00.0,33.3,26.2,26.0,0000.0,0003.76,0005.42,0003.53
2021-11-03 03:24:00,,0831.0,5.01,0.00,24.3,23.6,00.0,33.3,26.1,25.9,0000.0,0003.71,0005.37,0003.48
2021-11-03 03:25:00,,0831.0,5.00,0.00,24.3,23.5,00.0,33.3,26.1,25.8,0000.0,0003.70,0005.49,0003.43
2021-11-03 03:26:00,,0831.0,5.00,0.00,24.3,23.5,00.0,33.3,26.1,25.8,0000.0,0003.67,0005.69,0003.39
2021-11-03 03:27:00,,0831.0,5.01,0.00,24.2,23.5,00.0,33.3,26.1,25.7,0000.0,0003.59,0005.47,0003.33
2021-11-03 03:28:00,,0831.0,4.99,0.00,24.2,23.5,00.0,33.3,26.1,25.7,0000.0,0003.55,0005.34,0003.30
2021-11-03 03:29:00,,0831.0,5.00,0.00,24.2,23.5,00.0,33.3,26.1,25.7,0000.0,0003.54,0005.44,0003.28
2021-11-03 03:30:00,,0831.0,4.98,0.00,24.2,23.5,00.0,33.3,26.1,25.7,0000.0,0003.50,0005.29,0003.25
2021-11-03 03:31:00,,0831.0,5.01,0.00,24.2,23.5,00.0,33.3,26.1,25.7,0000.0,0003.50,0005.29,0003.23
2021-11-03 03:32:00,,0831.0,5.00,0.00,24.2,23.5,00.0,33.3,26.0,25.7,0000.0,0003.49,0005.29,0003.21
2021-11-03 03:33:00,,0831.0,4.99,0.00,24.2,23.4,00.0,33.3,26.1,25.8,0000.0,0003.48,0005.46,0003.20
2021-11-03 03:34:00,,0831.0,5.01,0.00,24.2,23.4,00.0,33.3,26.0,25.8,0000.0,0003.51,0005.82,0003.21
2021-11-03 03:35:00,,0831.1,4.99,0.00,24.2,23.4,00.0,33.3,26.0,25.8,0000.0,0003.54,0005.91,0003.22
2021-11-03 03:36:00,,0831.1,5.00,0.00,24.2,23.4,00.0,33.3,26.0,25.9,0000.0,0003.53,0005.76,0003.25
2021-11-03 03:37:00,,0831.2,5.00,0.00,24.2,23.4,00.0,33.3,26.0,26.0,0000.0,0003.53,0005.42,0003.28
2021-11-03 03:38:00,,0831.2,5.01,0.00,24.2,23.4,00.0,33.3,26.0,26.0,0000.0,0003.57,0005.50,0003.32
2021-11-03 03:39:00,,0831.2,4.99,0.00,24.2,23.4,00.0,33.3,26.0,25.9,0000.0,0003.58,0005.55,0003.33
2021-11-03 03:40:00,,0831.2,5.01,0.00,24.2,23.5,00.0,33.2,26.0,25.8,0000.0,0003.57,0005.52,0003.32
2021-11-03 03:41:00,,0831.2,4.99,0.00,24.2,23.5,00.0,33.3,26.0,25.7,0000.0,0003.56,0005.47,0003.30
2021-11-03 03:42:00,,0831.2,5.00,0.00,24.2,23.5,00.0,33.2,26.0,25.6,0000.0,0003.53,0005.38,0003.30
2021-11-03 03:43:00,,0831.2,5.01,0.00,24.2,23.5,00.0,33.2,26.0,25.6,0000.0,0003.53,0005.37,0003.30
2021-11-03 03:44:00,,0831.2,4.98,0.00,24.2,23.5,00.0,33.2,26.1,25.5,0000.0,0003.52,0005.21,0003.29
2021-11-03 03:45:00,,0831.2,5.00,0.00,24.2,23.6,00.0,33.3,26.1,25.5,0000.0,0003.50,0004.87,0003.27
2021-11-03 03:46:00,,0831.2,5.00,0.00,24.3,23.6,00.0,33.3,26.2,25.5,0000.0,0003.47,0004.81,0003.26
2021-11-03 03:47:00,,0831.2,4.99,0.00,24.3,23.6,00.0,33.3,26.2,25.5,0000.0,0003.46,0004.84,0003.22
2021-11-03 03:48:00,,0831.2,5.02,0.00,24.3,23.6,00.0,33.3,26.2,25.5,0000.0,0003.43,0004.83,0003.19
2021-11-03 03:49:00,,0831.2,4.99,0.00,24.3,23.6,00.0,33.3,26.2,25.5,0000.0,0003.41,0004.82,0003.16
2021-11-03 03:50:00,,0831.2,5.01,0.00,24.3,23.6,00.0,33.3,26.2,25.5,0000.0,0003.40,0004.82,0003.15
2021-11-03 03:51:00,,0831.2,5.00,0.00,24.3,23.7,00.0,33.3,26.2,25.5,0000.0,0003.40,0004.87,0003.14
2021-11-03 03:52:00,,0831.2,5.00,0.00,24.4,23.7,00.0,33.3,26.3,25.5,0000.0,0003.42,0004.89,0003.17
2021-11-03 03:53:00,,0831.3,5.01,0.00,24.4,23.7,00.0,33.3,26.3,25.5,0000.0,0003.44,0004.95,0003.19
2021-11-03 03:54:00,,0831.3,4.99,0.00,24.4,23.7,00.0,33.3,26.3,25.5,0000.0,0003.46,0004.99,0003.21
2021-11-03 03:55:00,,0831.4,5.01,0.00,24.4,23.7,00.0,33.4,26.3,25.5,0000.0,0003.50,0005.10,0003.24
2021-11-03 03:56:00,,0831.2,5.00,0.00,24.3,23.6,00.0,33.4,26.3,25.6,0000.0,0003.52,0005.14,0003.27
2021-11-03 03:57:00,,0831.1,5.01,0.00,24.3,23.6,00.0,33.4,26.3,25.6,0000.0,0003.55,0005.17,0003.30
2021-11-03 03:58:00,,0831.2,4.99,0.00,24.3,23.6,00.0,33.4,26.2,25.7,0000.0,0003.58,0005.14,0003.34
2021-11-03 03:59:00,,0831.1,5.01,0.00,24.3,23.6,00.0,33.4,26.2,25.7,0000.0,0003.62,0005.25,0003.38
